{"data":{"norad_id":58465,"intl_designator":"2023-185D","name":"BANE","alt_names":[],"object_type":"PAYLOAD","status":"ACTIVE","operator":null,"country":"US","launch_date":"2023-12-01","launch_site_code":"AFWTR","launch_vehicle":null,"mission":null,"orbit_class":"UNKNOWN","rcs_meters":null,"size_class":null,"mass_kg":null,"dimensions":null,"purposes":[],"wikipedia_slug":null,"has_3d_model":false,"image_url":null,"decayed_at":null,"tle_current":{"epoch":"2026-06-14T02:39:22.708800Z","epoch_age_seconds":8745900,"freshness":"OLD","line1":"1 58465U 23185D   26165.11067950  .14997138  25321-5  30011-3 0  9994","line2":"2 58465  97.3104 254.5514 0013007 263.1406  96.8417 16.46170839142369","mean_motion":16.46170839,"eccentricity":0.0013007,"inclination_deg":97.3104,"raan_deg":254.5514,"arg_perigee_deg":263.1406,"mean_anomaly_deg":96.8417,"bstar":0.00030011,"rev_number":14236,"period_min":87.475732523288,"perigee_km":140.94810538344,"apogee_km":157.92894034862,"semimajor_km":6527.575522866,"source":"CELESTRAK","updated_at":"2026-06-14T09:00:36.764563Z"}}}